File Updated: 23-Jun-2021, Data version 2.0 deriv_screen =  250 
Site_Code,Country,City,Latitude,Longitude,Elevation_meters,Year_local,Month_local,Day_local,Hours_sampled,Parameter_Code,Parameter_Name,Value,Units,Method_Code,Collection_Description,Analysis_Description,Conditions
INKA,India,Kanpur,26.5128,80.2316,123,2013,12,14,8,28108,Estimated PM2.5 mass,68.9,Micrograms per cubic meter (ug/m3),182,Filter PM2.5 mass (28101) and Airphoton 3-wavelength integrating nephelometer. Dry scatter inferred to 550 nm using default kappa (0.2) to account for aerosol hygroscopicity.,Nephelometry,Ambient local
INKA,India,Kanpur,26.5128,80.2316,123,2013,12,15,8,28108,Estimated PM2.5 mass,176.3,Micrograms per cubic meter (ug/m3),182,Filter PM2.5 mass (28101) and Airphoton 3-wavelength integrating nephelometer. Dry scatter inferred to 550 nm using default kappa (0.2) to account for aerosol hygroscopicity.,Nephelometry,Ambient local
INKA,India,Kanpur,26.5128,80.2316,123,2013,12,16,14,28108,Estimated PM2.5 mass,150.7,Micrograms per cubic meter (ug/m3),182,Filter PM2.5 mass (28101) and Airphoton 3-wavelength integrating nephelometer. Dry scatter inferred to 550 nm using default kappa (0.2) to account for aerosol hygroscopicity.,Nephelometry,Ambient local
INKA,India,Kanpur,26.5128,80.2316,123,2013,12,17,8,28108,Estimated PM2.5 mass,175.1,Micrograms per cubic meter (ug/m3),182,Filter PM2.5 mass (28101) and Airphoton 3-wavelength integrating nephelometer. Dry scatter inferred to 550 nm using default kappa (0.2) to account for aerosol hygroscopicity.,Nephelometry,Ambient local
INKA,India,Kanpur,26.5128,80.2316,123,2013,12,18,5,28108,Estimated PM2.5 mass,211.9,Micrograms per cubic meter (ug/m3),182,Filter PM2.5 mass (28101) and Airphoton 3-wavelength integrating nephelometer. Dry scatter inferred to 550 nm using default kappa (0.2) to account for aerosol hygroscopicity.,Nephelometry,Ambient local
INKA,India,Kanpur,26.5128,80.2316,123,2013,12,19,6,28108,Estimated PM2.5 mass,133,Micrograms per cubic meter (ug/m3),182,Filter PM2.5 mass (28101) and Airphoton 3-wavelength integrating nephelometer. Dry scatter inferred to 550 nm using default kappa (0.2) to account for aerosol hygroscopicity.,Nephelometry,Ambient local
INKA,India,Kanpur,26.5128,80.2316,123,2013,12,20,10,28108,Estimated PM2.5 mass,238.7,Micrograms per cubic meter (ug/m3),181,Site record PM2.5 mass-to-scatter (dry at 550 nm) ratio used to estimate PM2.5 mass; preliminary data,Nephelometry,Ambient local
INKA,India,Kanpur,26.5128,80.2316,123,2013,12,21,8,28108,Estimated PM2.5 mass,258.9,Micrograms per cubic meter (ug/m3),181,Site record PM2.5 mass-to-scatter (dry at 550 nm) ratio used to estimate PM2.5 mass; preliminary data,Nephelometry,Ambient local
INKA,India,Kanpur,26.5128,80.2316,123,2013,12,22,18,28108,Estimated PM2.5 mass,184.1,Micrograms per cubic meter (ug/m3),182,Filter PM2.5 mass (28101) and Airphoton 3-wavelength integrating nephelometer. Dry scatter inferred to 550 nm using default kappa (0.2) to account for aerosol hygroscopicity.,Nephelometry,Ambient local
INKA,India,Kanpur,26.5128,80.2316,123,2013,12,23,7,28108,Estimated PM2.5 mass,229.1,Micrograms per cubic meter (ug/m3),181,Site record PM2.5 mass-to-scatter (dry at 550 nm) ratio used to estimate PM2.5 mass; preliminary data,Nephelometry,Ambient local
INKA,India,Kanpur,26.5128,80.2316,123,2013,12,24,10,28108,Estimated PM2.5 mass,199.5,Micrograms per cubic meter (ug/m3),182,Filter PM2.5 mass (28101) and Airphoton 3-wavelength integrating nephelometer. Dry scatter inferred to 550 nm using default kappa (0.2) to account for aerosol hygroscopicity.,Nephelometry,Ambient local
INKA,India,Kanpur,26.5128,80.2316,123,2013,12,25,22,28108,Estimated PM2.5 mass,170.5,Micrograms per cubic meter (ug/m3),182,Filter PM2.5 mass (28101) and Airphoton 3-wavelength integrating nephelometer. Dry scatter inferred to 550 nm using default kappa (0.2) to account for aerosol hygroscopicity.,Nephelometry,Ambient local
INKA,India,Kanpur,26.5128,80.2316,123,2013,12,26,17,28108,Estimated PM2.5 mass,77.8,Micrograms per cubic meter (ug/m3),182,Filter PM2.5 mass (28101) and Airphoton 3-wavelength integrating nephelometer. Dry scatter inferred to 550 nm using default kappa (0.2) to account for aerosol hygroscopicity.,Nephelometry,Ambient local
INKA,India,Kanpur,26.5128,80.2316,123,2013,12,27,15,28108,Estimated PM2.5 mass,80.1,Micrograms per cubic meter (ug/m3),182,Filter PM2.5 mass (28101) and Airphoton 3-wavelength integrating nephelometer. Dry scatter inferred to 550 nm using default kappa (0.2) to account for aerosol hygroscopicity.,Nephelometry,Ambient local
INKA,India,Kanpur,26.5128,80.2316,123,2013,12,28,9,28108,Estimated PM2.5 mass,117.3,Micrograms per cubic meter (ug/m3),182,Filter PM2.5 mass (28101) and Airphoton 3-wavelength integrating nephelometer. Dry scatter inferred to 550 nm using default kappa (0.2) to account for aerosol hygroscopicity.,Nephelometry,Ambient local
INKA,India,Kanpur,26.5128,80.2316,123,2013,12,29,14,28108,Estimated PM2.5 mass,68.9,Micrograms per cubic meter (ug/m3),181,Site record PM2.5 mass-to-scatter (dry at 550 nm) ratio used to estimate PM2.5 mass; preliminary data,Nephelometry,Ambient local
INKA,India,Kanpur,26.5128,80.2316,123,2013,12,30,16,28108,Estimated PM2.5 mass,114.5,Micrograms per cubic meter (ug/m3),182,Filter PM2.5 mass (28101) and Airphoton 3-wavelength integrating nephelometer. Dry scatter inferred to 550 nm using default kappa (0.2) to account for aerosol hygroscopicity.,Nephelometry,Ambient local
INKA,India,Kanpur,26.5128,80.2316,123,2013,12,31,5,28108,Estimated PM2.5 mass,141.2,Micrograms per cubic meter (ug/m3),181,Site record PM2.5 mass-to-scatter (dry at 550 nm) ratio used to estimate PM2.5 mass; preliminary data,Nephelometry,Ambient local
INKA,India,Kanpur,26.5128,80.2316,123,2014,1,1,9,28108,Estimated PM2.5 mass,131.6,Micrograms per cubic meter (ug/m3),182,Filter PM2.5 mass (28101) and Airphoton 3-wavelength integrating nephelometer. Dry scatter inferred to 550 nm using default kappa (0.2) to account for aerosol hygroscopicity.,Nephelometry,Ambient local
INKA,India,Kanpur,26.5128,80.2316,123,2014,1,2,14,28108,Estimated PM2.5 mass,163.6,Micrograms per cubic meter (ug/m3),181,Site record PM2.5 mass-to-scatter (dry at 550 nm) ratio used to estimate PM2.5 mass; preliminary data,Nephelometry,Ambient local
INKA,India,Kanpur,26.5128,80.2316,123,2014,1,3,11,28108,Estimated PM2.5 mass,127,Micrograms per cubic meter (ug/m3),182,Filter PM2.5 mass (28101) and Airphoton 3-wavelength integrating nephelometer. Dry scatter inferred to 550 nm using default kappa (0.2) to account for aerosol hygroscopicity.,Nephelometry,Ambient local
INKA,India,Kanpur,26.5128,80.2316,123,2014,1,4,10,28108,Estimated PM2.5 mass,150.7,Micrograms per cubic meter (ug/m3),182,Filter PM2.5 mass (28101) and Airphoton 3-wavelength integrating nephelometer. Dry scatter inferred to 550 nm using default kappa (0.2) to account for aerosol hygroscopicity.,Nephelometry,Ambient local
INKA,India,Kanpur,26.5128,80.2316,123,2014,1,5,15,28108,Estimated PM2.5 mass,200.4,Micrograms per cubic meter (ug/m3),181,Site record PM2.5 mass-to-scatter (dry at 550 nm) ratio used to estimate PM2.5 mass; preliminary data,Nephelometry,Ambient local
INKA,India,Kanpur,26.5128,80.2316,123,2014,1,6,10,28108,Estimated PM2.5 mass,198.4,Micrograms per cubic meter (ug/m3),181,Site record PM2.5 mass-to-scatter (dry at 550 nm) ratio used to estimate PM2.5 mass; preliminary data,Nephelometry,Ambient local
INKA,India,Kanpur,26.5128,80.2316,123,2014,1,7,12,28108,Estimated PM2.5 mass,254.4,Micrograms per cubic meter (ug/m3),181,Site record PM2.5 mass-to-scatter (dry at 550 nm) ratio used to estimate PM2.5 mass; preliminary data,Nephelometry,Ambient local
INKA,India,Kanpur,26.5128,80.2316,123,2014,1,8,10,28108,Estimated PM2.5 mass,244.8,Micrograms per cubic meter (ug/m3),181,Site record PM2.5 mass-to-scatter (dry at 550 nm) ratio used to estimate PM2.5 mass; preliminary data,Nephelometry,Ambient local
INKA,India,Kanpur,26.5128,80.2316,123,2014,1,9,12,28108,Estimated PM2.5 mass,189.7,Micrograms per cubic meter (ug/m3),181,Site record PM2.5 mass-to-scatter (dry at 550 nm) ratio used to estimate PM2.5 mass; preliminary data,Nephelometry,Ambient local
INKA,India,Kanpur,26.5128,80.2316,123,2014,1,10,10,28108,Estimated PM2.5 mass,132.7,Micrograms per cubic meter (ug/m3),181,Site record PM2.5 mass-to-scatter (dry at 550 nm) ratio used to estimate PM2.5 mass; preliminary data,Nephelometry,Ambient local
INKA,India,Kanpur,26.5128,80.2316,123,2014,1,11,11,28108,Estimated PM2.5 mass,100.5,Micrograms per cubic meter (ug/m3),181,Site record PM2.5 mass-to-scatter (dry at 550 nm) ratio used to estimate PM2.5 mass; preliminary data,Nephelometry,Ambient local
INKA,India,Kanpur,26.5128,80.2316,123,2014,1,12,15,28108,Estimated PM2.5 mass,110.9,Micrograms per cubic meter (ug/m3),181,Site record PM2.5 mass-to-scatter (dry at 550 nm) ratio used to estimate PM2.5 mass; preliminary data,Nephelometry,Ambient local
INKA,India,Kanpur,26.5128,80.2316,123,2014,1,13,15,28108,Estimated PM2.5 mass,141.4,Micrograms per cubic meter (ug/m3),181,Site record PM2.5 mass-to-scatter (dry at 550 nm) ratio used to estimate PM2.5 mass; preliminary data,Nephelometry,Ambient local
INKA,India,Kanpur,26.5128,80.2316,123,2014,1,14,12,28108,Estimated PM2.5 mass,132,Micrograms per cubic meter (ug/m3),181,Site record PM2.5 mass-to-scatter (dry at 550 nm) ratio used to estimate PM2.5 mass; preliminary data,Nephelometry,Ambient local
INKA,India,Kanpur,26.5128,80.2316,123,2014,1,15,13,28108,Estimated PM2.5 mass,107.5,Micrograms per cubic meter (ug/m3),181,Site record PM2.5 mass-to-scatter (dry at 550 nm) ratio used to estimate PM2.5 mass; preliminary data,Nephelometry,Ambient local
INKA,India,Kanpur,26.5128,80.2316,123,2014,1,16,14,28108,Estimated PM2.5 mass,126.2,Micrograms per cubic meter (ug/m3),181,Site record PM2.5 mass-to-scatter (dry at 550 nm) ratio used to estimate PM2.5 mass; preliminary data,Nephelometry,Ambient local
INKA,India,Kanpur,26.5128,80.2316,123,2014,1,17,15,28108,Estimated PM2.5 mass,224.2,Micrograms per cubic meter (ug/m3),181,Site record PM2.5 mass-to-scatter (dry at 550 nm) ratio used to estimate PM2.5 mass; preliminary data,Nephelometry,Ambient local
INKA,India,Kanpur,26.5128,80.2316,123,2014,1,18,20,28108,Estimated PM2.5 mass,80.3,Micrograms per cubic meter (ug/m3),182,Filter PM2.5 mass (28101) and Airphoton 3-wavelength integrating nephelometer. Dry scatter inferred to 550 nm using default kappa (0.2) to account for aerosol hygroscopicity.,Nephelometry,Ambient local
INKA,India,Kanpur,26.5128,80.2316,123,2014,1,19,13,28108,Estimated PM2.5 mass,59.7,Micrograms per cubic meter (ug/m3),182,Filter PM2.5 mass (28101) and Airphoton 3-wavelength integrating nephelometer. Dry scatter inferred to 550 nm using default kappa (0.2) to account for aerosol hygroscopicity.,Nephelometry,Ambient local
INKA,India,Kanpur,26.5128,80.2316,123,2014,1,20,17,28108,Estimated PM2.5 mass,73.9,Micrograms per cubic meter (ug/m3),182,Filter PM2.5 mass (28101) and Airphoton 3-wavelength integrating nephelometer. Dry scatter inferred to 550 nm using default kappa (0.2) to account for aerosol hygroscopicity.,Nephelometry,Ambient local
INKA,India,Kanpur,26.5128,80.2316,123,2014,1,21,10,28108,Estimated PM2.5 mass,44.4,Micrograms per cubic meter (ug/m3),182,Filter PM2.5 mass (28101) and Airphoton 3-wavelength integrating nephelometer. Dry scatter inferred to 550 nm using default kappa (0.2) to account for aerosol hygroscopicity.,Nephelometry,Ambient local
INKA,India,Kanpur,26.5128,80.2316,123,2014,1,22,22,28108,Estimated PM2.5 mass,76.2,Micrograms per cubic meter (ug/m3),182,Filter PM2.5 mass (28101) and Airphoton 3-wavelength integrating nephelometer. Dry scatter inferred to 550 nm using default kappa (0.2) to account for aerosol hygroscopicity.,Nephelometry,Ambient local
INKA,India,Kanpur,26.5128,80.2316,123,2014,1,23,19,28108,Estimated PM2.5 mass,50.3,Micrograms per cubic meter (ug/m3),182,Filter PM2.5 mass (28101) and Airphoton 3-wavelength integrating nephelometer. Dry scatter inferred to 550 nm using default kappa (0.2) to account for aerosol hygroscopicity.,Nephelometry,Ambient local
INKA,India,Kanpur,26.5128,80.2316,123,2014,1,24,18,28108,Estimated PM2.5 mass,42.3,Micrograms per cubic meter (ug/m3),182,Filter PM2.5 mass (28101) and Airphoton 3-wavelength integrating nephelometer. Dry scatter inferred to 550 nm using default kappa (0.2) to account for aerosol hygroscopicity.,Nephelometry,Ambient local
INKA,India,Kanpur,26.5128,80.2316,123,2014,1,25,16,28108,Estimated PM2.5 mass,73,Micrograms per cubic meter (ug/m3),182,Filter PM2.5 mass (28101) and Airphoton 3-wavelength integrating nephelometer. Dry scatter inferred to 550 nm using default kappa (0.2) to account for aerosol hygroscopicity.,Nephelometry,Ambient local
INKA,India,Kanpur,26.5128,80.2316,123,2014,1,26,8,28108,Estimated PM2.5 mass,48.5,Micrograms per cubic meter (ug/m3),182,Filter PM2.5 mass (28101) and Airphoton 3-wavelength integrating nephelometer. Dry scatter inferred to 550 nm using default kappa (0.2) to account for aerosol hygroscopicity.,Nephelometry,Ambient local
INKA,India,Kanpur,26.5128,80.2316,123,2014,1,27,13,28108,Estimated PM2.5 mass,58.3,Micrograms per cubic meter (ug/m3),182,Filter PM2.5 mass (28101) and Airphoton 3-wavelength integrating nephelometer. Dry scatter inferred to 550 nm using default kappa (0.2) to account for aerosol hygroscopicity.,Nephelometry,Ambient local
INKA,India,Kanpur,26.5128,80.2316,123,2014,1,28,16,28108,Estimated PM2.5 mass,9,Micrograms per cubic meter (ug/m3),182,Filter PM2.5 mass (28101) and Airphoton 3-wavelength integrating nephelometer. Dry scatter inferred to 550 nm using default kappa (0.2) to account for aerosol hygroscopicity.,Nephelometry,Ambient local
INKA,India,Kanpur,26.5128,80.2316,123,2014,1,29,10,28108,Estimated PM2.5 mass,36,Micrograms per cubic meter (ug/m3),182,Filter PM2.5 mass (28101) and Airphoton 3-wavelength integrating nephelometer. Dry scatter inferred to 550 nm using default kappa (0.2) to account for aerosol hygroscopicity.,Nephelometry,Ambient local
INKA,India,Kanpur,26.5128,80.2316,123,2014,1,30,2,28108,Estimated PM2.5 mass,6,Micrograms per cubic meter (ug/m3),182,Filter PM2.5 mass (28101) and Airphoton 3-wavelength integrating nephelometer. Dry scatter inferred to 550 nm using default kappa (0.2) to account for aerosol hygroscopicity.,Nephelometry,Ambient local
INKA,India,Kanpur,26.5128,80.2316,123,2014,1,31,2,28108,Estimated PM2.5 mass,9.7,Micrograms per cubic meter (ug/m3),182,Filter PM2.5 mass (28101) and Airphoton 3-wavelength integrating nephelometer. Dry scatter inferred to 550 nm using default kappa (0.2) to account for aerosol hygroscopicity.,Nephelometry,Ambient local
INKA,India,Kanpur,26.5128,80.2316,123,2014,5,15,7,28108,Estimated PM2.5 mass,9.6,Micrograms per cubic meter (ug/m3),181,Site record PM2.5 mass-to-scatter (dry at 550 nm) ratio used to estimate PM2.5 mass; preliminary data,Nephelometry,Ambient local
INKA,India,Kanpur,26.5128,80.2316,123,2014,5,16,24,28108,Estimated PM2.5 mass,11.7,Micrograms per cubic meter (ug/m3),181,Site record PM2.5 mass-to-scatter (dry at 550 nm) ratio used to estimate PM2.5 mass; preliminary data,Nephelometry,Ambient local
INKA,India,Kanpur,26.5128,80.2316,123,2014,5,17,24,28108,Estimated PM2.5 mass,15.2,Micrograms per cubic meter (ug/m3),181,Site record PM2.5 mass-to-scatter (dry at 550 nm) ratio used to estimate PM2.5 mass; preliminary data,Nephelometry,Ambient local
INKA,India,Kanpur,26.5128,80.2316,123,2014,5,18,24,28108,Estimated PM2.5 mass,13.2,Micrograms per cubic meter (ug/m3),181,Site record PM2.5 mass-to-scatter (dry at 550 nm) ratio used to estimate PM2.5 mass; preliminary data,Nephelometry,Ambient local
INKA,India,Kanpur,26.5128,80.2316,123,2014,5,19,24,28108,Estimated PM2.5 mass,10.8,Micrograms per cubic meter (ug/m3),181,Site record PM2.5 mass-to-scatter (dry at 550 nm) ratio used to estimate PM2.5 mass; preliminary data,Nephelometry,Ambient local
INKA,India,Kanpur,26.5128,80.2316,123,2014,5,20,18,28108,Estimated PM2.5 mass,12.4,Micrograms per cubic meter (ug/m3),181,Site record PM2.5 mass-to-scatter (dry at 550 nm) ratio used to estimate PM2.5 mass; preliminary data,Nephelometry,Ambient local
INKA,India,Kanpur,26.5128,80.2316,123,2014,5,21,6,28108,Estimated PM2.5 mass,21.2,Micrograms per cubic meter (ug/m3),181,Site record PM2.5 mass-to-scatter (dry at 550 nm) ratio used to estimate PM2.5 mass; preliminary data,Nephelometry,Ambient local
INKA,India,Kanpur,26.5128,80.2316,123,2014,5,22,24,28108,Estimated PM2.5 mass,23.8,Micrograms per cubic meter (ug/m3),181,Site record PM2.5 mass-to-scatter (dry at 550 nm) ratio used to estimate PM2.5 mass; preliminary data,Nephelometry,Ambient local
INKA,India,Kanpur,26.5128,80.2316,123,2014,5,23,24,28108,Estimated PM2.5 mass,25.8,Micrograms per cubic meter (ug/m3),181,Site record PM2.5 mass-to-scatter (dry at 550 nm) ratio used to estimate PM2.5 mass; preliminary data,Nephelometry,Ambient local
INKA,India,Kanpur,26.5128,80.2316,123,2014,5,24,24,28108,Estimated PM2.5 mass,25.6,Micrograms per cubic meter (ug/m3),181,Site record PM2.5 mass-to-scatter (dry at 550 nm) ratio used to estimate PM2.5 mass; preliminary data,Nephelometry,Ambient local
INKA,India,Kanpur,26.5128,80.2316,123,2014,5,25,24,28108,Estimated PM2.5 mass,14.9,Micrograms per cubic meter (ug/m3),181,Site record PM2.5 mass-to-scatter (dry at 550 nm) ratio used to estimate PM2.5 mass; preliminary data,Nephelometry,Ambient local
INKA,India,Kanpur,26.5128,80.2316,123,2014,5,26,24,28108,Estimated PM2.5 mass,12,Micrograms per cubic meter (ug/m3),181,Site record PM2.5 mass-to-scatter (dry at 550 nm) ratio used to estimate PM2.5 mass; preliminary data,Nephelometry,Ambient local
INKA,India,Kanpur,26.5128,80.2316,123,2014,5,27,24,28108,Estimated PM2.5 mass,9.3,Micrograms per cubic meter (ug/m3),181,Site record PM2.5 mass-to-scatter (dry at 550 nm) ratio used to estimate PM2.5 mass; preliminary data,Nephelometry,Ambient local
INKA,India,Kanpur,26.5128,80.2316,123,2014,5,28,24,28108,Estimated PM2.5 mass,14.9,Micrograms per cubic meter (ug/m3),181,Site record PM2.5 mass-to-scatter (dry at 550 nm) ratio used to estimate PM2.5 mass; preliminary data,Nephelometry,Ambient local
INKA,India,Kanpur,26.5128,80.2316,123,2014,5,29,24,28108,Estimated PM2.5 mass,16.9,Micrograms per cubic meter (ug/m3),181,Site record PM2.5 mass-to-scatter (dry at 550 nm) ratio used to estimate PM2.5 mass; preliminary data,Nephelometry,Ambient local
INKA,India,Kanpur,26.5128,80.2316,123,2014,5,30,23,28108,Estimated PM2.5 mass,18.8,Micrograms per cubic meter (ug/m3),181,Site record PM2.5 mass-to-scatter (dry at 550 nm) ratio used to estimate PM2.5 mass; preliminary data,Nephelometry,Ambient local
INKA,India,Kanpur,26.5128,80.2316,123,2014,5,31,24,28108,Estimated PM2.5 mass,16,Micrograms per cubic meter (ug/m3),181,Site record PM2.5 mass-to-scatter (dry at 550 nm) ratio used to estimate PM2.5 mass; preliminary data,Nephelometry,Ambient local
INKA,India,Kanpur,26.5128,80.2316,123,2014,6,1,19,28108,Estimated PM2.5 mass,14.4,Micrograms per cubic meter (ug/m3),181,Site record PM2.5 mass-to-scatter (dry at 550 nm) ratio used to estimate PM2.5 mass; preliminary data,Nephelometry,Ambient local
INKA,India,Kanpur,26.5128,80.2316,123,2014,6,2,24,28108,Estimated PM2.5 mass,19.8,Micrograms per cubic meter (ug/m3),181,Site record PM2.5 mass-to-scatter (dry at 550 nm) ratio used to estimate PM2.5 mass; preliminary data,Nephelometry,Ambient local
INKA,India,Kanpur,26.5128,80.2316,123,2014,6,3,17,28108,Estimated PM2.5 mass,21.2,Micrograms per cubic meter (ug/m3),181,Site record PM2.5 mass-to-scatter (dry at 550 nm) ratio used to estimate PM2.5 mass; preliminary data,Nephelometry,Ambient local
INKA,India,Kanpur,26.5128,80.2316,123,2014,6,19,6,28108,Estimated PM2.5 mass,30.6,Micrograms per cubic meter (ug/m3),181,Site record PM2.5 mass-to-scatter (dry at 550 nm) ratio used to estimate PM2.5 mass; preliminary data,Nephelometry,Ambient local
INKA,India,Kanpur,26.5128,80.2316,123,2014,6,20,24,28108,Estimated PM2.5 mass,13.6,Micrograms per cubic meter (ug/m3),181,Site record PM2.5 mass-to-scatter (dry at 550 nm) ratio used to estimate PM2.5 mass; preliminary data,Nephelometry,Ambient local
INKA,India,Kanpur,26.5128,80.2316,123,2014,6,21,24,28108,Estimated PM2.5 mass,8,Micrograms per cubic meter (ug/m3),181,Site record PM2.5 mass-to-scatter (dry at 550 nm) ratio used to estimate PM2.5 mass; preliminary data,Nephelometry,Ambient local
INKA,India,Kanpur,26.5128,80.2316,123,2014,6,22,24,28108,Estimated PM2.5 mass,11.2,Micrograms per cubic meter (ug/m3),181,Site record PM2.5 mass-to-scatter (dry at 550 nm) ratio used to estimate PM2.5 mass; preliminary data,Nephelometry,Ambient local
INKA,India,Kanpur,26.5128,80.2316,123,2014,6,23,24,28108,Estimated PM2.5 mass,12.2,Micrograms per cubic meter (ug/m3),181,Site record PM2.5 mass-to-scatter (dry at 550 nm) ratio used to estimate PM2.5 mass; preliminary data,Nephelometry,Ambient local
INKA,India,Kanpur,26.5128,80.2316,123,2014,6,24,24,28108,Estimated PM2.5 mass,8,Micrograms per cubic meter (ug/m3),181,Site record PM2.5 mass-to-scatter (dry at 550 nm) ratio used to estimate PM2.5 mass; preliminary data,Nephelometry,Ambient local
INKA,India,Kanpur,26.5128,80.2316,123,2014,6,25,24,28108,Estimated PM2.5 mass,12.1,Micrograms per cubic meter (ug/m3),181,Site record PM2.5 mass-to-scatter (dry at 550 nm) ratio used to estimate PM2.5 mass; preliminary data,Nephelometry,Ambient local
INKA,India,Kanpur,26.5128,80.2316,123,2014,6,26,24,28108,Estimated PM2.5 mass,9.4,Micrograms per cubic meter (ug/m3),181,Site record PM2.5 mass-to-scatter (dry at 550 nm) ratio used to estimate PM2.5 mass; preliminary data,Nephelometry,Ambient local
INKA,India,Kanpur,26.5128,80.2316,123,2014,6,27,24,28108,Estimated PM2.5 mass,12,Micrograms per cubic meter (ug/m3),181,Site record PM2.5 mass-to-scatter (dry at 550 nm) ratio used to estimate PM2.5 mass; preliminary data,Nephelometry,Ambient local
INKA,India,Kanpur,26.5128,80.2316,123,2014,6,28,24,28108,Estimated PM2.5 mass,20.3,Micrograms per cubic meter (ug/m3),181,Site record PM2.5 mass-to-scatter (dry at 550 nm) ratio used to estimate PM2.5 mass; preliminary data,Nephelometry,Ambient local
INKA,India,Kanpur,26.5128,80.2316,123,2014,6,29,24,28108,Estimated PM2.5 mass,14.8,Micrograms per cubic meter (ug/m3),181,Site record PM2.5 mass-to-scatter (dry at 550 nm) ratio used to estimate PM2.5 mass; preliminary data,Nephelometry,Ambient local
INKA,India,Kanpur,26.5128,80.2316,123,2014,6,30,24,28108,Estimated PM2.5 mass,20.2,Micrograms per cubic meter (ug/m3),181,Site record PM2.5 mass-to-scatter (dry at 550 nm) ratio used to estimate PM2.5 mass; preliminary data,Nephelometry,Ambient local
INKA,India,Kanpur,26.5128,80.2316,123,2014,7,1,20,28108,Estimated PM2.5 mass,15.4,Micrograms per cubic meter (ug/m3),181,Site record PM2.5 mass-to-scatter (dry at 550 nm) ratio used to estimate PM2.5 mass; preliminary data,Nephelometry,Ambient local
INKA,India,Kanpur,26.5128,80.2316,123,2014,7,2,18,28108,Estimated PM2.5 mass,14.9,Micrograms per cubic meter (ug/m3),181,Site record PM2.5 mass-to-scatter (dry at 550 nm) ratio used to estimate PM2.5 mass; preliminary data,Nephelometry,Ambient local
INKA,India,Kanpur,26.5128,80.2316,123,2014,7,3,21,28108,Estimated PM2.5 mass,11.5,Micrograms per cubic meter (ug/m3),181,Site record PM2.5 mass-to-scatter (dry at 550 nm) ratio used to estimate PM2.5 mass; preliminary data,Nephelometry,Ambient local
INKA,India,Kanpur,26.5128,80.2316,123,2014,7,4,23,28108,Estimated PM2.5 mass,12.1,Micrograms per cubic meter (ug/m3),181,Site record PM2.5 mass-to-scatter (dry at 550 nm) ratio used to estimate PM2.5 mass; preliminary data,Nephelometry,Ambient local